This is the latest recevied weather packets stored in our database for station/object KK7KRZ. If no packets are shown the sender has not sent any weather packets the latest 10 day(s).
| Time | Temp. | Humidity | Pressure | Rain* | Wind** | Luminosity | Snow |
|---|---|---|---|---|---|---|---|
| 1777916462 | 14.44° C | 83% | 1013.7 hPa | 0 mm | - | 148 W/m² | - |
| 1777916159 | 14.44° C | 82% | 1013.6 hPa | 0 mm | - | 172 W/m² | - |
| 1777915857 | 15° C | 81% | 1013.7 hPa | 0 mm | - | 178 W/m² | - |
| 1777915553 | 14.44° C | 82% | 1013.4 hPa | 0 mm | - | 177 W/m² | - |
| 1777915250 | 14.44° C | 82% | 1013.8 hPa | 0 mm | - | 191 W/m² | - |
| 1777914946 | 14.44° C | 83% | 1013.5 hPa | 0 mm | - | 172 W/m² | - |
| 1777914644 | 14.44° C | 83% | 1013.6 hPa | 0 mm | - | 155 W/m² | - |
| 1777914339 | 14.44° C | 83% | 1013.7 hPa | 0 mm | - | 196 W/m² | - |
| 1777914037 | 14.44° C | 84% | 1013.7 hPa | 0 mm | - | 157 W/m² | - |
| 1777913733 | 13.89° C | 84% | 1013.4 hPa | 0 mm | - | 148 W/m² | - |
| 1777913430 | 13.89° C | 84% | 1013.7 hPa | 0 mm | - | 141 W/m² | - |
| 1777913126 | 13.89° C | 84% | 1013.4 hPa | 0 mm | - | 146 W/m² | - |
| 1777912823 | 13.33° C | 85% | 1013.5 hPa | 0 mm | - | 137 W/m² | - |
| 1777912519 | 13.89° C | 84% | 1013.5 hPa | 0 mm | - | 148 W/m² | - |
| 1777912216 | 13.89° C | 85% | 1013.6 hPa | 0 mm | - | 148 W/m² | - |
| 1777911912 | 13.33° C | 85% | 1013.5 hPa | 0 mm | - | 116 W/m² | - |
| 1777911608 | 13.33° C | 86% | 1013.6 hPa | 0 mm | - | 100 W/m² | - |
| 1777911304 | 13.33° C | 86% | 1013.5 hPa | 0 mm | - | 98 W/m² | - |
| 1777911002 | 13.33° C | 87% | 1013.4 hPa | 0 mm | - | 101 W/m² | - |
| 1777910700 | 12.78° C | 87% | 1013.5 hPa | 0 mm | - | 81 W/m² | - |
| 1777910395 | 12.78° C | 88% | 1013.5 hPa | 0 mm | - | 78 W/m² | - |
| 1777910092 | 12.78° C | 88% | 1013.7 hPa | 0 mm | - | 81 W/m² | - |
| 1777909790 | 12.78° C | 88% | 1013.7 hPa | 0 mm | - | 69 W/m² | - |
| 1777909486 | 12.78° C | 88% | 1013.2 hPa | 0 mm | - | 76 W/m² | - |
| 1777909184 | 12.78° C | 88% | 1013.4 hPa | 0 mm | - | 78 W/m² | - |
* Rain latest hour (hover to see other rain measurements)
** Current wind speed in m/s (hover to see current wind gust speed)